Flag for Switzerland Weather past 2 weeks in Köniz, Bern, Switzerland

Now
57 °F

Broken clouds.


Feels Like: 55 °F
Forecast: 41 / 61 °F
Wind: 10 mph from East

Location: Bern / Belp

Current Time: May 22, 2015 at 4:16:23 PM

Latest Report: May 22, 2015 at 3:50 PM


Visibility: N/A

Pressure: 30.18 "Hg

Humidity: 55%

Dew point: 41 °F

Location of KönizLocation

Historic Weather in Köniz — Graph

°F

Köniz temperature yesterday

Maximum temperature yesterday: 52 °F (at 1:50 PM)
Minimum temperature yesterday: 41 °F (at 12:50 AM)
Average temperature yesterday: 45 °F

Past Weeks' High & Low Weather Summary

 TemperatureHumidityPressure
High84 °F (May 13, 3:20 PM)100% (May 8, 1:20 AM)30.36 "Hg (May 8, 1:20 AM)
Low39 °F (May 15, 1:20 PM)25% (May 12, 5:20 PM)29.77 "Hg (May 18, 5:50 PM)
Average57 °F72%30.10 "Hg
* Reported May 7 3:20 PM — May 22 3:20 PM, Köniz, Weather by CustomWeather, © 2015

Note: Actual official high and low records may vary slightly from our data, if they occured in-between our weather recording intervals... More about our weather records

Advertising

Köniz weather history for previous 24 hours

 ConditionsComfort  
Time TempWeatherWind HumidityBarometerVisibility
3:20 PM
Fri, May 22
57 °FBroken clouds.12 mph55%30.18 "HgN/A
2:50 PM59 °FPartly sunny.9 mph51%30.18 "HgN/A
2:20 PM57 °FPartly sunny.6 mph55%30.21 "HgN/A
1:50 PM57 °FBroken clouds.8 mph55%30.21 "HgN/A
1:20 PM55 °FBroken clouds.8 mph59%30.21 "HgN/A
12:50 PM57 °FPartly sunny.14 mph59%30.21 "HgN/A
12:20 PM57 °FPassing clouds.10 mph55%30.21 "HgN/A
11:50 AM57 °FPassing clouds.12 mph59%30.21 "HgN/A
11:20 AM55 °FPassing clouds.9 mph55%30.24 "HgN/A
10:50 AM55 °FPassing clouds.12 mph55%30.24 "HgN/A
10:20 AM55 °FScattered clouds.8 mph63%30.24 "HgN/A
9:50 AM54 °FScattered clouds.7 mph67%30.24 "HgN/A
9:20 AM52 °FPartly sunny.6 mph72%30.24 "HgN/A
8:50 AM52 °FScattered clouds.6 mph72%30.24 "HgN/A
8:20 AM50 °FBroken clouds.6 mph76%30.24 "HgN/A
7:50 AM48 °FBroken clouds.3 mph87%30.24 "HgN/A
7:20 AM45 °FPartly sunny.3 mph100%30.24 "Hg5 mi
6:50 AM43 °FPartly sunny.6 mph100%30.24 "Hg6 mi
6:20 AM43 °FFog.5 mph100%30.24 "Hg3 mi
5:50 AM43 °FFog.2 mph100%30.24 "Hg3 mi
5:20 AM43 °FOvercast.No wind100%30.24 "Hg4 mi
4:50 AM43 °FOvercast.1 mph100%30.24 "Hg3 mi
4:20 AM41 °FFog.2 mph100%30.27 "Hg2 mi
3:50 AM43 °FPassing clouds.1 mph100%30.27 "Hg5 mi
3:20 AM45 °FPassing clouds.1 mph93%30.27 "Hg4 mi
2:50 AM45 °FOvercast.3 mph93%30.27 "Hg4 mi
2:20 AM45 °FPassing clouds.1 mph100%30.27 "Hg4 mi
1:50 AM45 °FFog.1 mph100%30.27 "Hg3 mi
1:20 AM45 °FOvercast.1 mph93%30.27 "Hg4 mi
12:50 AM45 °FFog.1 mph93%30.30 "Hg3 mi
12:20 AM45 °FOvercast.1 mph93%30.30 "HgN/A
11:50 PM
Thu, May 21
45 °FPassing clouds.2 mph100%30.30 "HgN/A
11:20 PM45 °FMostly cloudy.2 mph100%30.30 "HgN/A
10:50 PM45 °FMostly cloudy.3 mph100%30.30 "HgN/A
10:20 PM46 °FPassing clouds.1 mph93%30.30 "HgN/A
9:50 PM46 °FPartly sunny.5 mph93%30.27 "HgN/A
9:20 PM46 °FPartly sunny.3 mph93%30.27 "HgN/A
8:50 PM48 °FPartly sunny.5 mph87%30.27 "HgN/A
8:20 PM48 °FBroken clouds.5 mph87%30.27 "HgN/A
7:50 PM48 °FBroken clouds.6 mph87%30.27 "HgN/A
7:20 PM50 °FPartly sunny.5 mph76%30.27 "HgN/A
6:50 PM50 °FPartly sunny.3 mph71%30.27 "HgN/A
6:20 PM50 °FPartly sunny.5 mph76%30.27 "HgN/A
5:50 PM48 °FDrizzle. Partly sunny.5 mph82%30.27 "HgN/A
5:20 PM50 °FPartly sunny.12 mph76%30.24 "HgN/A
4:50 PM48 °FPartly sunny.12 mph82%30.24 "HgN/A
4:20 PM48 °FBroken clouds.9 mph82%30.24 "HgN/A
Weather by CustomWeather, © 2015

See weather overviewHow to use our weather pages